Alternative, mp3

Название Размер Сиды, личи Добавлен
Unkle - The Road: Part 1 [Japanese Edition] (2017) MP3 143.87 МБ 58 78 11.10.2017 Скачать
Сборник - Rock Republic: Solid VA-Album Of Rock (2017) MP3 1.37 ГБ 30 62 10.11.2017 Скачать
VA - Guitar Collection (Vol.1-12) (2016-2017) MP3 10.81 ГБ 45 37 09.11.2017 Скачать
VA - The Best Of Radio Maximum (2011-2016) MP3 882.30 МБ 50 50 07.11.2017 Скачать
Red - Gone [Deluxe Edition] (2017) MP3 145.52 МБ 28 19 07.11.2017 Скачать
Сборник - Alternative Digest (2017) MP3 1.51 ГБ 16 35 05.11.2017 Скачать
VA - August Rock Digest (2017) MP3 1.20 ГБ 15 29 04.11.2017 Скачать
Сборник - Jazz Piano Hits (2017) MP3 288.97 МБ 34 41 04.11.2017 Скачать
VA - Hard-Rock Attack - Collection (Vol.1-25 + Bonus) (2013-2017) MP3 12.91 ГБ 76 69 04.11.2017 Скачать
Сборник - Лучшая Дискотека 80х-90х. 200 Хитов (2017) MP3 1.81 ГБ 77 65 03.11.2017 Скачать
VA - Сборник песен Радио MAXIMUM Рок (2016) MP3 8.29 ГБ 15 21 03.11.2017 Скачать
VA - The Best Cover Versions of Kraftwerk (2002) MP3 187.23 МБ 81 76 03.11.2017 Скачать
Сборник - Smash Hits The 90s [3CD] (2017) MP3 545.11 МБ 64 82 02.11.2017 Скачать
Сборник - Heavy Cabbalism (2017) MP3 1.41 ГБ 46 63 02.11.2017 Скачать
Сборник - Top 100 Yandex 12.08.2017 (2017) MP3 849.48 МБ 45 86 01.11.2017 Скачать
Сборник - Lust And Love: Rock Hard Revue (2017) MP3 1.69 ГБ 70 13 01.11.2017 Скачать
VA - Рок в авто (2017) MP3 2.61 ГБ 13 18 01.11.2017 Скачать
VA - My Favorite Blues: Soul Collection (2017) MP3 1.04 ГБ 4 49 31.10.2017 Скачать
Righteous Vendetta - Cursed (2017) МР3 110.63 МБ 65 50 30.10.2017 Скачать
5'nizza - Дискография (2003-2017) MP3 860.14 МБ 51 4 27.10.2017 Скачать
M83 - Discography (2001-2017) MP3 2.45 ГБ 60 41 25.10.2017 Скачать
Rainbow - Since You Been Gone: The Essential Rainbow (2017) MP3 505.11 МБ 54 55 24.10.2017 Скачать
Ensiferum - Two Paths (2017) MP3 123.44 МБ 49 52 24.10.2017 Скачать
Сборник - Independet Alternative Rock (2017) MP3 1.26 ГБ 35 77 20.10.2017 Скачать
Сборник - Death Express: Original Hits Alternative (2017) MP3 1.06 ГБ 69 36 20.10.2017 Скачать
Anathema - The Optimist (2017) MP3 198.14 МБ 71 59 19.10.2017 Скачать
VA - Punk Goes: Collection (2000-2017) MP3 2.30 ГБ 59 18 17.10.2017 Скачать
David Bowie - No Plan (EP) (2017) MP3 41.40 МБ 79 45 16.10.2017 Скачать
Moby & The Void Pacific Choir - More Fast Songs About the Apocalypse (2017) MP3 82.64 МБ 10 66 13.10.2017 Скачать
(Indie Rock, Garage, Alternative, Lo-Fi) Hinds - Leave Me Alone - 2016, MP3, 320 kbps 91.01 МБ 59 75 09.10.2017 Скачать
(indie) Rykarda Parasol - The Color of Destruction - 2015, MP3, 192 kbps 56.80 МБ 60 47 09.10.2017 Скачать
Anathema - Дискография (1992-2015) MP3 3.77 ГБ 21 27 29.09.2017 Скачать
Бибик - Зинкин Лес (2017) MP3 97.23 МБ 85 29 29.09.2017 Скачать
Various Artist - Alternative Digest (2017) MP3 1.51 ГБ 37 20 29.09.2017 Скачать
(Pop Punk / Punk Rock / Easycore / Alternative Rock) VA - Render The Pop Punk Part 3 - 2015, MP3, 192-320 kbps 227.30 МБ 68 53 27.09.2017 Скачать
(Alternative Rock) Stump - Does The Fish Have Chips - 2014, MP3, 320 kbps 177.49 МБ 72 42 01.09.2017 Скачать
(Alternative Rock) Muse - Psycho Tour - 2015, MP3, 320 kbps 49.11 МБ 50 65 25.08.2017 Скачать
Twenty One Pilots - Blurryface (2015) MP3 119.95 МБ 24 2 15.08.2017 Скачать
(Electronic, Indie Pop, Alternative) Bang Gang - The Wolves Are Whispering - 2015, MP3, 320 kbps 97.74 МБ 14 4 20.07.2017 Скачать
The Cranberries - Something Else (2017) MP3 125.92 МБ 39 81 14.07.2017 Скачать
(Rock, Alternative) Сухие - Новая [2014, MP3, 320 kbps] 80.72 МБ 10 37 13.07.2017 Скачать
VA - Lets Rock: Good History (2017) MP3 1.57 ГБ 88 40 30.06.2017 Скачать
(Country | Alternative) Darrell Goldman - The Bed I've Made (2015) [MP3, 320 kbps] 70.28 МБ 12 68 11.05.2017 Скачать
Björk - Biophilia Live (2014) MP3 221.30 МБ 53 32 05.05.2017 Скачать
Siouxsie & The Banshees - Spellbound: The Collection (2015) MP3 171.54 МБ 44 3 04.05.2017 Скачать
Feeder - Дискография (1997-2012) MP3 708.18 МБ 79 64 27.04.2017 Скачать
(Electronic, Downtempo, Alternative) Bran Van 3000 - French Garden - 2015, MP3, 320 kbps 90.32 МБ 65 34 27.04.2017 Скачать
Gorillaz - Humanz (Deluxe Edition) (2CD) (2017) MP3 160.66 МБ 76 44 27.04.2017 Скачать
VA - New Moons, Vol. III (2015) MP3 209.98 МБ 79 27 26.04.2017 Скачать
Morrissey - You Are The Quarry (Deluxe Edition) (2004) MP3 от BestSound ExKinoRay 179.93 МБ 31 39 24.04.2017 Скачать
(Alternative, Shoegaze, Psychedelic) Difference Engine - Breadmaker - 1993 (2015 remaster), MP3, 320 kbps 90.27 МБ 66 56 14.04.2017 Скачать
(Alternative Chillout, Circus Psychill) Free Soul School Makvärket - Free Soul School @ Makvärkets Åbnings Festival - 2015, MP3, 320 kbps 106.35 МБ 85 9 14.04.2017 Скачать
(Alternative Metal) PROCENT - Я с тобой + За гранью. Часть 1: Новый старт - 2013-2015 [MP3, 320 kbps] 219.15 МБ 70 59 07.04.2017 Скачать
(Alternative Metal/Rock) Shaken - Going Nowhere - 2015, MP3, 320 kbps 117.96 МБ 26 80 06.04.2017 Скачать
(Alternative Metal/Rock) Insobrio - Beer Genes - 2015, MP3, 320 kbps 138.83 МБ 12 24 05.04.2017 Скачать
(alternative, folk, indie, pop, rock) Mary Lou Lord - Backstreet Angels - 2015, MP3, 320 kbps 122.46 МБ 5 80 05.04.2017 Скачать